Content
SEND FEEDBACK

Daily
Averages
Monthly
Summary
United States of America

LAKE PLACID, NEW YORK


Home > North America > United States > New York
Elevation: 1984 feet     Latitude: 44 15N     Longitude: 073 59W

WEATHER
 
SELECT A DAY
Number of Records: 224,829;   Date Range: 1/1/95 - 7/29/14
 
SHARE

PRINT THIS DATA

[ ← Previous Day ]
WEATHER ALMANAC - APRIL 21, 2013
[ Next Day → ]
[ °C ]   °F
Weather ElementAverageHighLow
Temperature29.1 °F42.1 °F (4:51 pm)19.9 °F (4:51 am)
Dewpoint12.7 °F18 °F (12:51 am)7 °F (2:51 pm)
Humidity54.2 %80 % (1:29 am)26 % (5:51 pm)
Barometer30.52 in30.67 in (9:51 pm)30.26 in (1:05 am)
Wind Speed4.2 mph9.2 mph (1:05 am)
Weather ElementAverage
Visibility9.2 mi
Wind DirectionENE (70.4 °)

Weather ElementTotal
Precipitation---
Heating Degree Days34 (Base 65)
Averaged from 27 records on April 21, 2013
WEATHER CONDITIONS BREAKOUT
WIND DIRECTION BREAKOUT
WEATHER BY HOUR - APRIL 21, 2013
[ °C ]   °F
Local TimeTemperatureDewpointHumidityBarometerVisibilityWind DirectionWind SpeedGust SpeedPrecipitationEventsConditions
12:51 AM25.0 °F18.0 °F75 %30.30 in6.0 miWSW (250°)6.9 mph0.00 inSnowLight Snow
1:05 AM24.8 °F17.6 °F74 %30.26 in7.0 miWest (270°)9.2 mph0.00 inSnowLight Snow
1:24 AM24.8 °F17.6 °F74 %30.27 in2.0 miWNW (290°)8.1 mph0.00 inSnowLight Snow
1:29 AM23.0 °F17.6 °F80 %30.27 in3.0 miWest (270°)8.1 mph0.00 inSnowLight Snow
1:51 AM23.0 °F15.1 °F72 %30.34 in10.0 miVariable5.8 mph0.00 inMostly Cloudy
2:51 AM21.9 °F12.0 °F66 %30.36 in10.0 miVariable3.5 mphMostly Cloudy
3:51 AM21.0 °F12.0 °F68 %30.39 in10.0 miCalmScattered Clouds
4:51 AM19.9 °F12.0 °F71 %30.43 in10.0 miCalmScattered Clouds
5:51 AM19.9 °F12.0 °F71 %30.46 in10.0 miCalmClear
6:51 AM21.0 °F14.0 °F74 %30.50 in10.0 miCalmClear
7:51 AM24.1 °F12.9 °F62 %30.55 in10.0 miVariable3.5 mphPartly Cloudy
8:51 AM25.0 °F12.0 °F58 %30.58 in10.0 miVariable4.6 mphClear
9:51 AM28.0 °F12.9 °F53 %30.60 in10.0 miVariable4.6 mphClear
10:51 AM30.0 °F10.9 °F45 %30.61 in10.0 miVariable5.8 mphClear
11:51 AM33.1 °F10.9 °F40 %30.61 in10.0 miWNW (290°)9.2 mphClear
12:51 PM36.0 °F10.9 °F36 %30.61 in10.0 miNNE (30°)5.8 mphClear
1:51 PM37.0 °F9.0 °F31 %30.61 in10.0 miVariable4.6 mphClear
2:51 PM39.0 °F7.0 °F27 %30.61 in10.0 miVariable3.5 mphClear
3:51 PM41.0 °F10.0 °F28 %30.60 in10.0 miVariable3.5 mphClear
4:51 PM42.1 °F10.0 °F27 %30.60 in10.0 miNE (50°)6.9 mphClear
5:51 PM42.1 °F9.0 °F26 %30.60 in10.0 miNNE (20°)4.6 mphClear
6:51 PM41.0 °F8.1 °F26 %30.61 in10.0 miNW (320°)3.5 mphClear
7:51 PM34.0 °F9.0 °F35 %30.63 in10.0 miCalmClear
8:51 PM27.0 °F14.0 °F58 %30.66 in10.0 miCalmClear
9:51 PM28.9 °F16.0 °F58 %30.67 in10.0 miNNE (30°)5.8 mphClear
10:51 PM26.1 °F16.0 °F66 %30.67 in10.0 miNE (50°)3.5 mphClear
11:51 PM26.1 °F15.1 °F63 %30.67 in10.0 miNNE (30°)3.5 mphClear
Hourly data recorded from KSLK, located miles away from Lake Placid, New York







STORIES FROM OUR PARTNERS